{"data":{"norad_id":58784,"epoch":"2026-09-20T10:47:39.541344Z","epoch_age_seconds":156815,"freshness":"FRESH","line1":"1 58784U 24011V   26263.44976321 -.00001720  00000+0 -39825-4 0  9997","line2":"2 58784  53.1603 187.9820 0001297  74.8353 285.2793 15.34371861150108","mean_motion":15.34371861,"eccentricity":0.0001297,"inclination_deg":53.1603,"raan_deg":187.982,"arg_perigee_deg":74.8353,"mean_anomaly_deg":285.2793,"bstar":-3.9825e-5,"rev_number":15010,"period_min":93.849479164816,"perigee_km":461.8996086965,"apogee_km":463.67414435007,"semimajor_km":6840.9238765233,"source":"CELESTRAK","updated_at":"2026-09-21T09:00:33.978107Z"}}